This is the latest recevied weather packets stored in our database for station/object 2E1HJE-10. If no packets are shown the sender has not sent any weather packets the latest 10 day(s).
| Time | Temp. | Humidity | Pressure | Rain* | Wind** | Luminosity | Snow |
|---|---|---|---|---|---|---|---|
| 1776979708 | 8.33° C | 92% | 1028.6 hPa | 0 mm | - | - | - |
| 1776978507 | 7.78° C | 91% | 1028.9 hPa | 0 mm | - | - | - |
| 1776977907 | 8.33° C | 89% | 1028.8 hPa | 0 mm | - | - | - |
| 1776976107 | 8.33° C | 89% | 1028.8 hPa | 0 mm | - | - | - |
| 1776975507 | 8.33° C | 89% | 1028.8 hPa | 0 mm | - | - | - |
| 1776974307 | 8.89° C | 86% | 1028.9 hPa | 0 mm | - | - | - |
| 1776973107 | 8.33° C | 85% | 1029.4 hPa | 0 mm | - | - | - |
| 1776971306 | 8.33° C | 85% | 1029.4 hPa | 0 mm | - | - | - |
| 1776970108 | 8.89° C | 81% | 1029.4 hPa | 0 mm | - | - | - |
| 1776969509 | 8.89° C | 81% | 1029.4 hPa | 0 mm | - | - | - |
| 1776968908 | 8.89° C | 81% | 1029.4 hPa | 0 mm | - | - | - |
| 1776968308 | 8.89° C | 82% | 1029.3 hPa | 0 mm | - | - | - |
| 1776967107 | 8.89° C | 78% | 1029.7 hPa | 0 mm | - | - | - |
| 1776966507 | 8.89° C | 78% | 1029.7 hPa | 0 mm | - | - | - |
| 1776965308 | 9.44° C | 78% | 1029.7 hPa | 0 mm | - | - | - |
| 1776964107 | 10° C | 79% | 1029.5 hPa | 0 mm | - | - | - |
| 1776962908 | 10° C | 72% | 1029.6 hPa | 0 mm | - | - | - |
| 1776962308 | 10.56° C | 72% | 1029.6 hPa | 0 mm | - | - | - |
| 1776961708 | 10.56° C | 72% | 1029.6 hPa | 0 mm | - | - | - |
| 1776960508 | 11.11° C | 72% | 1029.6 hPa | 0 mm | - | - | - |
| 1776959908 | 11.11° C | 70% | 1029.9 hPa | 0 mm | - | - | - |
| 1776959309 | 11.11° C | 70% | 1029.9 hPa | 0 mm | - | - | - |
| 1776958708 | 11.67° C | 70% | 1029.9 hPa | 0 mm | - | - | - |
| 1776956308 | 12.22° C | 69% | 1030.2 hPa | 0 mm | - | - | - |
| 1776955707 | 12.22° C | 69% | 1030.2 hPa | 0 mm | - | - | - |
* Rain latest hour (hover to see other rain measurements)
** Current wind speed in m/s (hover to see current wind gust speed)